Flag for Pakistan Weather past 2 weeks in Khushab, Pakistan

Now
57 °F

Broken clouds.


Feels Like: 57 °F
Forecast: 45 / 65 °F
Wind: No wind

Location: Islamabad Airport

Current Time: Dec 22, 2014 at 4:03:46 PM

Latest Report: Dec 22, 2014 at 3:00 PM


Visibility: 1 mi

Pressure: 29.98 "Hg

Humidity: 55%

Dew point: 41 °F

Location of KhushabLocation

Historic Weather in Khushab — Graph

°F

Khushab temperature yesterday

Maximum temperature yesterday: 63 °F (at 2:00 PM)
Minimum temperature yesterday: 39 °F (at 7:00 AM)
Average temperature yesterday: 50 °F

Past Weeks' High & Low Weather Summary

 TemperatureHumidityPressure
High73 °F (Dec 7, 3:00 PM)100% (Dec 19, 4:00 AM)30.27 "Hg (Dec 19, 4:00 AM)
Low37 °F (Dec 18, 7:00 AM)25% (Dec 7, 3:00 PM)29.98 "Hg (Dec 7, 3:00 PM)
Average52 °F70%30.11 "Hg
* Reported Dec 7 3:00 PM — Dec 22 3:00 PM, Khushab, Weather by CustomWeather, © 2014

Note: Actual official high and low records may vary slightly from our data, if they occured in-between our weather recording intervals... More about our weather records

Advertising

Khushab weather history for previous 24 hours

 ConditionsComfort  
Time TempWeatherWind HumidityBarometerVisibility
3:00 PM
Dec 22
57 °FBroken clouds.No wind55%29.98 "Hg1 mi
2:00 PM55 °FBroken clouds.5 mph63%30.01 "Hg1 mi
1:00 PM52 °FBroken clouds.5 mph77%30.01 "Hg1 mi
12:00 PM52 °FFog.No wind77%30.04 "Hg1 mi
11:00 AM50 °FFog.No wind82%30.07 "Hg1 mi
10:00 AM48 °FFog.No wind87%30.09 "Hg1 mi
9:00 AM45 °FFog.No wind87%30.07 "Hg1 mi
8:00 AM43 °FFog.No wind87%30.04 "Hg1 mi
7:00 AM43 °FFog.No wind87%30.04 "Hg1 mi
6:00 AM43 °FFog.No wind87%30.01 "Hg1 mi
5:00 AM43 °FFog.No wind87%30.01 "Hg1 mi
4:00 AM45 °FFog.No wind87%30.04 "Hg1 mi
3:00 AM45 °FFog.No wind87%30.07 "Hg1 mi
2:00 AM46 °FFog.No wind87%30.07 "Hg1 mi
1:00 AM46 °FFog.No wind87%30.07 "Hg1 mi
12:00 AM46 °FFog.No wind87%30.09 "Hg1 mi
11:00 PM
Dec 21
46 °FFog.No wind87%30.09 "Hg1 mi
10:00 PM48 °FFog.No wind87%30.09 "Hg1 mi
9:00 PM50 °FFog.No wind82%30.09 "Hg1 mi
8:00 PM52 °FPassing clouds.No wind77%30.07 "Hg1 mi
7:00 PM52 °FPassing clouds.5 mph77%30.07 "Hg1 mi
6:00 PM55 °FPassing clouds.7 mph67%30.04 "Hg1 mi
5:00 PM59 °FScattered clouds.No wind59%30.04 "Hg1 mi
4:00 PM63 °FScattered clouds.No wind52%30.04 "Hg1 mi
Weather by CustomWeather, © 2014

See weather overviewHow to use our weather pages